Location: Bishausen
(51.6334°N, 9.9631°E)
Time: 10:57:00
(UTC+00:00)

Cosmos 407 Rocket - Pass Details

Date: 23 May 2024
Orbit: 742 x 783 km, 74.0° (Epoch: 23 June)

Event Time Altitude Azimuth Distance (km) Brightness Sun altitude
Exits shadow 00:44:28 16° 241° (WSW) 1,952 5.2 -15.2°
Maximum altitude 00:48:20 40° 305° (NW) 1,132 4.5 -15.0°
Drops below altitude 10° 00:53:17 10° 14° (NNE) 2,313 7.4 -14.7°
Sets 00:55:48 0° 22° (NNE) 3,236 8.7 -14.5°
